User: anonymous   Login
Location: Rumah Long Bangan
(2.8362°N, 113.7519°E)
Time: 01:59:57
(UTC+00:00)
Language:

Okean 1 Rocket - Orbit

View from above orbital plane
View from above orbital plane
View from above satellite
View from above satellite

Ground track
Ground track

The orbit data is extracted from the following two-line orbital elements,

1 19275U 88056B   22026.52881773  .00000183  00000-0  19543-4 0  9992
2 19275  82.5154 194.4091 0021338  60.9534 299.3815 14.82839332791763
Epoch (UTC): 26 January 2022 12:41:29
Eccentricity: 0.0021338
inclination: 82.5154°
perigee height: 605 km
apogee height: 635 km
right ascension of ascending node: 194.4091°
argument of perigee: 60.9534°
revolutions per day: 14.82839332
mean anomaly at epoch: 299.3815°
orbit number at epoch: 79176

The dashed part of the orbit path shows where the satellite is in the earth's shadow,  

DLR